sat.trackr.live / text

‹ back to catalog

TIANQI-24

NORAD 57795 · 2023-135D

PAYLOAD ACTIVE UNKNOWN

§ Identity

Operator
Country
PRC
Launch date
2023-09-05
Launch site
SEAL
Launch vehicle
Mass (kg)
RCS (m²)

External: N2YO · Heavens-Above · Gunter

§ Orbital elements

Epoch: 2026-09-21T22:12:51.772608Z

Period
101.18 min
Inclination
49.9723°
Eccentricity
0.0013350
Mean motion
14.23183265 rev/d
Perigee alt
805.0 km
Apogee alt
824.2 km
Semi-major
7,192.7 km
B*
1.0557e-5
RAAN
105.7322°
Arg perigee
238.1714°
Mean anomaly
121.7899°
Rev number
15,840

§ Raw data

TIANQI-241 57795U 23135D   26264.92559922 -.00000135  00000+0  10557-4 0  99912 57795  49.9723 105.7322 0013350 238.1714 121.7899 14.23183265158407

JSON: /api/v1/satellites/57795 · /tle

For live sub-satellite position, see the globe view (requires WebGL).

§ Visibility from observer

Set your observer location to see the next 7 days of passes ≥ 10°. The values pass through the URL so the page stays shareable.

No JS? Fill the form by hand. The geolocation button needs JavaScript.

§ Radio — SatNOGS DB

ModeDescriptionDownlinkUplink
LoRa Mode U - LoRa 400.450 MHz

1 transmitter · refreshed weekly from db.satnogs.org